This is the latest recevied weather packets stored in our database for station/object KM4LTG. If no packets are shown the sender has not sent any weather packets the latest 10 day(s).
| Time | Temp. | Humidity | Pressure | Rain* | Wind** | Luminosity | Snow |
|---|---|---|---|---|---|---|---|
| 1778019750 | 27.78° C | 64% | 1015.5 hPa | 0 mm | - | - | - |
| 1778019485 | 28.33° C | 63% | 1015.5 hPa | 0 mm | - | - | - |
| 1778019230 | 28.33° C | 63% | 1015.3 hPa | 0 mm | - | - | - |
| 1778018969 | 28.89° C | 62% | 1015.4 hPa | 0 mm | - | - | - |
| 1778018704 | 28.33° C | 62% | 1015.4 hPa | 0 mm | - | - | - |
| 1778018415 | 28.33° C | 63% | 1015.3 hPa | 0 mm | - | - | - |
| 1778018135 | 28.33° C | 63% | 1015.3 hPa | 0 mm | - | - | - |
| 1778017890 | 28.33° C | 62% | 1015.4 hPa | 0 mm | - | - | - |
| 1778017630 | 28.89° C | 62% | 1015.3 hPa | 0 mm | - | - | - |
| 1778017374 | 28.33° C | 64% | 1015.4 hPa | 0 mm | - | - | - |
| 1778017085 | 28.89° C | 63% | 1015.5 hPa | 0 mm | - | - | - |
| 1778016786 | 28.33° C | 63% | 1015.3 hPa | 0 mm | - | - | - |
| 1778016535 | 28.89° C | 63% | 1015.3 hPa | 0 mm | - | - | - |
| 1778016293 | 28.89° C | 63% | 1015.4 hPa | 0 mm | - | - | - |
| 1778015996 | 28.33° C | 62% | 1015.2 hPa | 0 mm | - | - | - |
| 1778015430 | 28.33° C | 65% | 1015.2 hPa | 0 mm | - | - | - |
| 1778015135 | 28.33° C | 62% | 1015.2 hPa | 0 mm | - | - | - |
| 1778014593 | 28.89° C | 63% | 1015.1 hPa | 0 mm | - | - | - |
| 1778014345 | 28.89° C | 62% | 1015.1 hPa | 0 mm | - | - | - |
| 1778014065 | 28.89° C | 62% | 1015.2 hPa | 0 mm | - | - | - |
| 1778013775 | 28.89° C | 63% | 1015.2 hPa | 0 mm | - | - | - |
| 1778013475 | 28.89° C | 63% | 1015.3 hPa | 0 mm | - | - | - |
| 1778013220 | 29.44° C | 61% | 1015.3 hPa | 0 mm | - | - | - |
| 1778012920 | 28.89° C | 62% | 1015.3 hPa | 0 mm | - | - | - |
| 1778012675 | 28.89° C | 62% | 1015.4 hPa | 0 mm | - | - | - |
* Rain latest hour (hover to see other rain measurements)
** Current wind speed in m/s (hover to see current wind gust speed)